This is the latest recevied weather packets stored in our database for station/object W4MSI. If no packets are shown the sender has not sent any weather packets the latest 10 day(s).
| Time | Temp. | Humidity | Pressure | Rain* | Wind** | Luminosity | Snow |
|---|---|---|---|---|---|---|---|
| 1777857167 | 16.11° C | 48% | 1013.9 hPa | 0 mm | - | 0 W/m² | - |
| 1777856863 | 16.11° C | 48% | 1014.1 hPa | 0 mm | - | 0 W/m² | - |
| 1777856558 | 16.11° C | 48% | 1014.1 hPa | 0 mm | - | 0 W/m² | - |
| 1777856255 | 16.67° C | 48% | 1014 hPa | 0 mm | - | 0 W/m² | - |
| 1777855953 | 16.67° C | 47% | 1014 hPa | 0 mm | - | 1 W/m² | - |
| 1777855650 | 16.67° C | 47% | 1013.9 hPa | 0 mm | - | 1 W/m² | - |
| 1777855347 | 16.67° C | 47% | 1014 hPa | 0 mm | - | 3 W/m² | - |
| 1777855043 | 16.67° C | 47% | 1014 hPa | 0 mm | - | 5 W/m² | - |
| 1777854741 | 17.22° C | 46% | 1013.9 hPa | 0 mm | - | 8 W/m² | - |
| 1777854437 | 17.22° C | 46% | 1013.7 hPa | 0 mm | - | 10 W/m² | - |
| 1777854134 | 17.22° C | 46% | 1013.5 hPa | 0 mm | - | 14 W/m² | - |
| 1777853832 | 17.22° C | 45% | 1013.8 hPa | 0 mm | - | 18 W/m² | - |
| 1777853529 | 17.78° C | 45% | 1013.8 hPa | 0 mm | - | 21 W/m² | - |
| 1777853225 | 17.78° C | 44% | 1013.8 hPa | 0 mm | - | 25 W/m² | - |
| 1777852922 | 17.78° C | 43% | 1013.9 hPa | 0 mm | - | 30 W/m² | - |
| 1777852621 | 17.78° C | 43% | 1013.9 hPa | 0 mm | - | 32 W/m² | - |
| 1777852317 | 17.78° C | 43% | 1014 hPa | 0 mm | - | 36 W/m² | - |
| 1777852015 | 18.33° C | 43% | 1014.1 hPa | 0 mm | - | 38 W/m² | - |
| 1777851713 | 18.33° C | 42% | 1014 hPa | 0 mm | - | 39 W/m² | - |
| 1777851409 | 18.33° C | 41% | 1014.2 hPa | 0 mm | - | 42 W/m² | - |
| 1777851105 | 18.89° C | 41% | 1014.2 hPa | 0 mm | - | 67 W/m² | - |
| 1777850802 | 18.89° C | 41% | 1014.1 hPa | 0 mm | - | 69 W/m² | - |
| 1777850500 | 18.89° C | 41% | 1014.3 hPa | 0 mm | - | 75 W/m² | - |
| 1777850198 | 18.89° C | 40% | 1014.5 hPa | 0 mm | - | 87 W/m² | - |
| 1777849894 | 18.89° C | 39% | 1014.5 hPa | 0 mm | - | 100 W/m² | - |
* Rain latest hour (hover to see other rain measurements)
** Current wind speed in m/s (hover to see current wind gust speed)